Wind_Speed
17 17 18 19 19 19 18 19 19 19 18 17 17 17 17 16 16 16 16 17 18 18 19 20 22 23 24 25 26 28 30 31 32 34 34 34 32 30 30 31 33 34 35 36
17 17 17 17 17 17 17 17 18 18 17 16 16 15 14 13 13 13 14 15 17 18 19 20 20 21 21 21 23 24 26 27 27 27 28 27 24 22 21 22 23 25 26 27
16 17 16 16 16 16 16 17 17 17 16 15 14 14 13 12 12 12 13 14 15 17 18 19 19 19 18 19 20 20 22 23 23 22 22 21 18 16 14 14 15 18 19 20
15 16 15 14 15 15 15 15 16 16 16 15 14 13 12 11 11 11 12 13 14 15 16 17 17 16 16 17 17 17 18 19 20 19 18 17 16 13 10 8 7 9 11 14
15 16 15 15 15 15 15 15 16 16 16 15 14 13 12 11 11 10 10 12 13 14 15 15 15 14 14 14 14 15 16 17 18 17 16 15 14 13 10 6 3 2 5 7
16 17 16 15 15 15 15 15 16 16 16 15 14 14 12 11 10 9 10 11 13 14 14 14 14 14 13 13 13 13 14 14 16 15 14 14 13 12 10 8 5 4 2 3
18 18 18 17 17 17 17 16 16 17 17 16 15 14 13 12 11 10 10 12 13 13 14 14 13 13 12 11 11 12 13 14 14 14 14 14 14 13 11 10 8 6 5 3
19 20 19 19 18 18 18 17 17 18 18 18 16 15 15 14 12 11 11 12 12 12 13 13 12 11 11 10 11 11 12 13 13 14 14 14 14 13 12 11 9 7 6 5
20 21 21 21 21 20 20 20 20 20 20 19 18 17 16 15 14 13 12 12 12 12 12 12 11 11 10 10 10 11 11 12 13 13 13 13 12 11 11 10 9 9 8 8
21 21 21 21 21 21 22 22 22 22 22 21 20 19 17 16 15 14 13 13 13 13 12 12 12 11 11 10 10 11 11 12 12 12 12 12 12 12 11 11 11 11 11 11
21 22 21 21 21 22 22 23 24 23 23 23 22 21 19 18 17 16 15 14 14 14 14 13 13 13 12 12 11 11 12 12 12 12 12 12 13 13 13 13 13 13 14 14
21 22 21 21 22 22 22 23 24 25 25 24 24 23 22 20 19 18 17 16 15 15 15 14 14 14 14 13 13 12 12 13 13 13 13 14 14 15 15 15 16 16 17 18
21 21 21 22 22 22 23 24 25 25 26 26 25 25 24 23 21 20 19 18 17 16 16 16 15 15 15 15 14 14 14 14 14 14 15 16 16 17 17 18 19 20 21 22
20 21 21 21 21 21 22 23 24 25 26 26 26 26 25 24 23 22 21 19 19 18 17 17 17 16 16 16 16 15 16 16 16 16 17 17 18 19 19 20 21 23 24 25
21 21 21 21 21 22 22 23 24 25 26 26 27 26 26 25 25 24 22 21 20 20 19 18 18 18 18 18 17 17 17 17 18 18 19 19 20 21 22 23 24 25 26 28
21 21 21 22 22 22 23 23 24 25 26 26 27 27 27 26 26 25 24 23 22 21 20 20 19 19 19 19 19 19 19 19 20 20 21 21 22 23 24 25 26 28 29 30
20 20 21 22 22 23 24 24 24 25 25 26 27 27 27 27 26 25 25 24 23 22 22 21 21 21 20 20 21 21 21 21 22 22 23 23 24 25 26 27 29 29 30 32
19 20 21 22 23 23 24 24 25 25 25 26 26 27 27 27 26 25 25 24 24 23 22 22 22 22 22 22 22 22 23 23 23 24 24 25 26 27 28 29 30 31 32 33
18 19 20 20 21 21 22 23 24 24 25 25 25 26 26 26 26 26 25 26 26 25 24 23 23 22 22 23 23 24 24 24 24 25 25 26 27 28 29 30 31 32 33 34
17 18 19 19 19 20 20 21 22 23 23 24 24 25 25 26 26 26 25 25 26 26 25 25 24 23 23 23 23 23 24 25 25 25 26 27 27 28 29 31 32 33 34 35
16 15 15 15 15 16 16 17 19 20 21 21 22 23 24 24 25 25 25 25 25 25 25 25 25 25 24 24 24 24 25 25 25 25 26 27 28 29 30 31 33 34 35 36
14 13 12 12 11 11 11 13 14 16 18 19 20 20 21 22 22 23 24 25 26 26 26 25 25 25 25 25 25 25 25 25 25 25 26 27 28 29 31 33 34 35 35 36
14 13 13 12 11 10 10 11 12 13 14 16 18 19 20 21 22 22 23 24 25 26 26 26 25 25 25 25 25 25 25 25 26 26 27 28 29 30 32 33 34 35 36 36
14 14 13 13 12 12 12 12 12 13 14 14 15 16 18 19 21 22 23 25 26 26 26 26 26 26 26 26 26 26 26 27 27 28 29 30 30 31 33 33 34 35 35 36
15 15 15 15 15 15 15 16 16 16 16 16 16 17 17 18 18 20 21 23 24 24 25 26 26 27 26 26 27 27 27 28 29 30 30 31 31 32 33 33 34 35 35 36
19 18 19 19 19 20 20 20 20 20 19 19 19 19 19 19 19 19 20 21 22 23 24 25 26 27 27 28 29 29 29 30 30 30 31 31 31 32 32 32 34 34 35 37
23 23 24 24 24 24 24 23 23 22 22 22 22 21 21 21 21 21 22 22 23 24 25 26 27 28 29 29 29 30 30 30 30 31 31 31 31 31 32 33 33 34 35 37
Wind_Direction
196 198 199 199 200 200 203 208 215 220 222 219 220 223 229 237 247 257 265 271 276 281 284 286 290 292 295 299 302 307 312 314 313 314 315 311 304 294 282 273 266 260 257 254
190 193 196 199 201 203 210 216 221 223 222 219 219 225 234 243 256 267 272 279 282 282 284 289 293 294 299 303 308 312 318 323 322 324 326 323 318 307 292 277 267 261 256 252
194 197 201 205 206 210 217 221 223 223 220 221 224 231 238 248 260 271 278 286 289 288 287 291 294 297 300 305 311 316 322 327 330 332 337 338 334 324 310 290 273 262 253 247
202 205 209 212 216 219 222 223 222 220 220 224 230 236 243 253 264 274 282 289 296 297 295 296 297 299 302 307 313 319 324 332 336 339 345 350 350 343 334 317 285 258 242 235
213 215 217 219 223 226 226 224 221 219 222 228 235 241 247 254 264 275 288 297 301 301 302 301 300 301 306 311 314 320 327 333 341 346 352 356 0 2 0 356 343 270 232 224
223 226 227 227 231 232 231 228 224 223 225 230 237 243 248 256 264 277 294 301 305 305 304 304 303 303 309 316 321 326 332 337 342 348 355 2 7 10 13 14 12 0 324 271
233 235 236 236 238 237 236 234 230 229 229 232 240 245 251 260 267 278 294 303 306 308 307 306 305 305 311 319 329 336 342 345 349 354 360 5 10 15 19 20 17 12 1 337
240 241 242 241 243 243 241 238 235 233 233 235 241 248 256 263 269 280 292 301 304 307 308 306 305 307 312 321 329 336 342 348 355 359 3 5 8 12 14 16 16 14 7 351
246 246 245 244 246 245 242 239 239 238 237 239 244 251 258 265 270 278 287 295 299 302 304 304 302 304 310 318 326 332 338 344 349 352 354 356 358 360 1 0 358 354 348 340
249 248 247 246 245 245 244 241 241 242 242 243 247 252 259 265 272 278 285 290 294 296 296 297 297 298 301 309 318 325 330 335 339 343 345 346 347 347 347 345 343 339 333 326
249 250 248 247 246 245 245 244 244 244 245 247 249 253 259 266 272 277 281 285 288 290 289 289 290 289 292 297 305 313 320 325 330 334 337 338 339 339 338 336 333 329 324 319
246 250 251 249 248 247 246 246 246 246 247 249 251 255 260 266 271 274 277 279 283 285 285 286 285 283 284 289 295 303 311 317 322 327 331 333 334 333 332 330 326 322 319 315
244 248 251 252 251 250 248 248 248 248 249 251 253 256 261 265 269 271 273 275 277 279 281 282 282 280 280 283 287 294 302 308 313 320 325 328 328 327 326 324 321 318 315 314
241 244 247 250 251 252 251 251 251 251 252 253 255 257 260 264 266 268 269 271 274 275 277 279 279 277 277 279 282 288 295 300 305 311 317 320 322 321 320 319 318 316 314 312
240 242 246 250 252 253 254 254 254 254 254 254 256 258 260 263 265 265 266 267 269 271 273 275 276 275 275 276 278 284 289 294 299 304 309 312 315 316 317 317 316 315 314 313
239 242 246 249 252 254 256 256 256 255 255 255 256 258 260 262 263 263 263 264 266 267 268 271 273 275 275 274 276 281 285 290 294 298 302 307 310 311 313 314 315 314 314 314
240 245 248 250 253 255 257 257 256 256 256 256 256 257 258 259 260 260 260 260 262 264 265 267 270 272 273 274 276 279 283 287 291 295 299 303 306 308 310 312 314 314 314 314
244 250 254 256 258 258 257 256 255 254 255 255 256 255 256 256 257 257 257 258 259 261 263 265 268 270 271 272 275 278 281 285 289 293 297 300 303 306 309 312 313 314 315 315
250 256 260 263 263 262 260 257 255 254 254 255 255 254 254 253 253 254 255 255 256 258 260 263 268 271 271 273 275 277 281 285 289 292 295 299 302 306 308 311 313 315 316 316
254 260 263 266 267 265 262 258 255 254 253 253 254 254 252 250 251 252 253 254 255 256 258 262 267 270 273 274 276 279 283 286 289 292 295 299 302 306 309 311 314 315 316 316
254 259 264 268 268 266 262 258 255 254 253 253 254 253 251 251 251 250 252 253 254 255 257 261 265 269 272 274 277 280 283 286 289 292 296 300 303 306 309 312 314 316 316 317
248 253 258 262 266 265 264 262 259 257 255 254 254 253 253 253 252 251 252 253 254 255 258 260 264 268 272 274 276 278 281 285 288 292 297 301 304 307 310 313 315 316 316 317
245 250 252 255 259 266 270 270 269 266 264 261 257 256 255 255 255 255 255 255 256 256 258 261 263 267 270 272 274 277 280 283 287 293 297 301 304 308 310 313 315 316 316 317
245 249 253 256 261 267 274 277 278 277 274 270 268 266 263 261 260 258 258 258 258 259 260 261 262 265 269 271 274 277 280 284 289 293 297 300 303 307 310 312 314 316 316 318
249 253 256 259 264 269 274 278 279 278 278 277 276 274 272 270 267 265 263 262 261 262 262 263 264 266 269 272 275 278 281 285 289 293 296 299 303 306 309 312 314 316 317 319
254 257 261 264 268 271 274 277 278 278 277 276 275 275 275 274 272 271 269 267 266 267 267 268 269 270 272 275 277 279 282 285 288 291 294 298 302 305 309 311 314 315 317 319
258 261 264 267 270 273 275 276 276 276 276 276 275 274 274 274 274 273 273 272 271 272 272 272 273 274 275 277 279 280 282 285 287 289 293 296 301 304 308 311 313 316 318 320
Height
5646 5649 5652 5655 5658 5661 5664 5666 5668 5670 5673 5675 5677 5679 5680 5681 5682 5682 5681 5680 5679 5677 5675 5673 5670 5667 5663 5659 5655 5649 5643 5635 5627 5618 5608 5598 5589 5582 5578 5576 5576 5578 5580 5584
5645 5647 5650 5653 5656 5658 5661 5663 5665 5666 5669 5671 5673 5674 5676 5676 5677 5676 5676 5674 5673 5671 5669 5666 5663 5660 5657 5652 5647 5642 5636 5629 5621 5612 5603 5594 5585 5578 5574 5571 5571 5572 5574 5577
5644 5646 5649 5652 5654 5656 5658 5660 5661 5663 5666 5667 5669 5670 5671 5672 5672 5671 5670 5669 5667 5665 5663 5660 5657 5654 5650 5646 5642 5636 5631 5624 5617 5609 5601 5592 5584 5578 5573 5570 5569 5569 5570 5572
5643 5645 5647 5652 5651 5653 5655 5656 5658 5660 5662 5664 5665 5666 5667 5667 5667 5667 5666 5664 5662 5660 5658 5655 5652 5649 5645 5641 5637 5632 5627 5621 5614 5607 5600 5592 5585 5579 5575 5571 5569 5568 5569 5571
5640 5642 5645 5647 5648 5649 5651 5653 5655 5657 5659 5660 5661 5662 5663 5663 5663 5662 5661 5659 5658 5655 5653 5650 5647 5644 5640 5636 5632 5628 5623 5618 5612 5606 5600 5593 5587 5582 5577 5574 5572 5570 5570 5571
5638 5639 5641 5644 5645 5645 5649 5650 5651 5653 5655 5656 5657 5659 5660 5659 5658 5657 5656 5655 5653 5651 5648 5645 5642 5639 5636 5633 5629 5625 5621 5616 5611 5606 5600 5595 5589 5585 5580 5577 5575 5573 5573 5573
5633 5635 5637 5639 5640 5642 5645 5647 5648 5649 5651 5652 5653 5655 5655 5654 5654 5653 5652 5650 5648 5646 5644 5641 5638 5636 5633 5630 5626 5623 5619 5615 5610 5606 5601 5596 5592 5587 5584 5581 5578 5577 5576 5576
5628 5631 5635 5634 5635 5638 5640 5641 5643 5644 5646 5648 5649 5650 5650 5650 5649 5648 5647 5646 5644 5642 5640 5637 5635 5632 5630 5627 5624 5621 5617 5614 5610 5605 5601 5597 5594 5590 5587 5584 5582 5580 5579 5578
5625 5627 5628 5629 5630 5632 5634 5635 5637 5639 5641 5643 5644 5645 5645 5645 5644 5644 5642 5641 5639 5638 5636 5634 5632 5630 5627 5625 5622 5619 5616 5612 5609 5605 5602 5598 5595 5592 5589 5586 5584 5582 5580 5579
5618 5620 5621 5623 5624 5626 5628 5630 5632 5634 5636 5637 5639 5640 5640 5640 5639 5639 5638 5636 5635 5633 5632 5630 5628 5626 5624 5622 5620 5617 5614 5611 5608 5604 5601 5598 5595 5592 5589 5586 5584 5582 5580 5578
5611 5613 5615 5616 5618 5620 5622 5624 5626 5628 5630 5631 5633 5634 5634 5634 5634 5633 5632 5631 5630 5629 5627 5626 5624 5623 5621 5619 5617 5614 5612 5609 5606 5603 5600 5596 5593 5590 5588 5585 5583 5580 5578 5576
5605 5607 5609 5610 5612 5614 5616 5618 5620 5621 5623 5625 5626 5627 5628 5628 5628 5628 5627 5626 5625 5624 5623 5621 5620 5619 5617 5616 5614 5612 5609 5606 5603 5600 5597 5594 5591 5588 5586 5583 5580 5577 5575 5572
5599 5600 5602 5604 5606 5608 5609 5611 5613 5614 5616 5618 5620 5621 5621 5622 5622 5622 5621 5621 5620 5619 5618 5617 5615 5614 5613 5612 5610 5608 5606 5603 5600 5597 5594 5591 5588 5586 5583 5580 5577 5574 5571 5567
5592 5594 5596 5598 5599 5601 5602 5604 5606 5607 5609 5611 5612 5613 5614 5615 5615 5615 5615 5615 5614 5613 5612 5611 5610 5609 5608 5607 5605 5603 5601 5599 5596 5594 5591 5588 5585 5582 5579 5576 5572 5569 5566 5562
5586 5588 5590 5591 5593 5594 5595 5597 5599 5600 5602 5603 5605 5606 5607 5607 5608 5608 5608 5608 5607 5607 5606 5606 5605 5604 5603 5601 5600 5598 5597 5594 5592 5589 5586 5583 5580 5577 5574 5570 5567 5563 5560 5555
5580 5582 5584 5585 5586 5587 5588 5590 5591 5592 5594 5595 5597 5598 5599 5600 5600 5601 5601 5601 5601 5601 5600 5600 5599 5598 5597 5596 5594 5593 5591 5589 5586 5584 5581 5578 5575 5572 5568 5565 5561 5557 5553 5548
5574 5576 5577 5578 5579 5580 5581 5582 5583 5584 5585 5587 5588 5590 5591 5591 5592 5593 5593 5594 5594 5594 5594 5593 5593 5592 5591 5589 5588 5587 5585 5583 5580 5578 5575 5572 5569 5566 5562 5559 5555 5550 5546 5541
5568 5569 5571 5571 5572 5573 5573 5574 5575 5576 5577 5578 5580 5581 5582 5583 5584 5585 5586 5586 5586 5587 5587 5586 5586 5585 5584 5583 5582 5580 5578 5576 5574 5572 5569 5566 5563 5560 5556 5552 5548 5543 5538 5533
5562 5563 5564 5564 5564 5565 5565 5566 5567 5568 5569 5570 5571 5572 5573 5575 5576 5577 5578 5578 5579 5579 5579 5579 5579 5578 5577 5576 5575 5573 5571 5569 5567 5565 5562 5559 5556 5553 5549 5545 5540 5536 5531 5525
5556 5557 5557 5557 5557 5557 5558 5558 5559 5560 5561 5562 5563 5564 5565 5566 5567 5568 5569 5570 5571 5571 5572 5572 5571 5571 5570 5569 5567 5566 5564 5563 5560 5558 5555 5552 5549 5546 5542 5537 5533 5528 5523 5517
5551 5551 5551 5551 5551 5551 5551 5551 5552 5553 5553 5554 5555 5556 5557 5558 5559 5560 5561 5562 5563 5563 5564 5564 5564 5563 5562 5561 5560 5559 5557 5555 5553 5551 5548 5545 5542 5538 5534 5530 5525 5520 5515 5510
5546 5546 5546 5546 5546 5546 5546 5546 5546 5546 5547 5548 5548 5549 5550 5551 5551 5552 5553 5554 5555 5555 5556 5556 5556 5555 5554 5554 5552 5551 5550 5548 5546 5543 5541 5538 5535 5531 5527 5522 5518 5513 5507 5502
5541 5542 5542 5542 5542 5542 5541 5541 5541 5541 5541 5542 5542 5542 5543 5543 5544 5545 5545 5546 5547 5547 5547 5548 5547 5547 5546 5545 5544 5543 5542 5540 5538 5536 5533 5530 5527 5523 5519 5515 5510 5505 5499 5494
5536 5537 5537 5537 5537 5537 5537 5537 5537 5537 5536 5536 5536 5536 5536 5536 5537 5537 5538 5538 5539 5539 5539 5539 5539 5539 5538 5537 5536 5535 5534 5532 5530 5528 5526 5523 5519 5515 5511 5507 5502 5497 5491 5486
5531 5532 5532 5532 5532 5532 5532 5532 5532 5532 5531 5531 5531 5530 5530 5530 5530 5530 5530 5530 5531 5531 5531 5531 5531 5530 5530 5529 5528 5527 5526 5524 5522 5520 5517 5514 5511 5507 5503 5499 5494 5489 5484 5478
5525 5526 5526 5526 5526 5526 5526 5526 5526 5525 5525 5525 5524 5524 5524 5523 5523 5523 5523 5523 5523 5523 5523 5523 5522 5522 5522 5521 5520 5519 5517 5516 5514 5511 5509 5506 5503 5499 5495 5491 5486 5481 5476 5470
5518 5519 5519 5519 5519 5519 5519 5518 5518 5518 5518 5517 5517 5517 5517 5517 5516 5516 5516 5516 5515 5515 5515 5514 5514 5513 5513 5512 5511 5510 5508 5507 5505 5503 5500 5498 5495 5491 5487 5483 5479 5474 5468 5463